This is the latest recevied weather packets stored in our database for station/object YF9UAG-17. If no packets are shown the sender has not sent any weather packets the latest 10 day(s).
| Time | Temp. | Humidity | Pressure | Rain* | Wind** | Luminosity | Snow |
|---|---|---|---|---|---|---|---|
| 1787989286 | 30° C | 44% | 1029.6 hPa | - | - | - | - |
| 1787988684 | 29.44° C | 45% | 1029.7 hPa | - | - | - | - |
| 1787988082 | 29.44° C | 46% | 1029.7 hPa | - | - | - | - |
| 1787987479 | 30° C | 45% | 1029.8 hPa | - | - | - | - |
| 1787986877 | 29.44° C | 46% | 1030.1 hPa | - | - | - | - |
| 1787986274 | 29.44° C | 46% | 1030.1 hPa | - | - | - | - |
| 1787985672 | 29.44° C | 46% | 1030.2 hPa | - | - | - | - |
| 1787985070 | 29.44° C | 46% | 1030.3 hPa | - | - | - | - |
| 1787984467 | 28.89° C | 46% | 1030.5 hPa | - | - | - | - |
| 1787983865 | 28.89° C | 46% | 1030.7 hPa | - | - | - | - |
| 1787983263 | 28.89° C | 45% | 1030.7 hPa | - | - | - | - |
| 1787982660 | 28.89° C | 45% | 1030.9 hPa | - | - | - | - |
| 1787982058 | 28.89° C | 45% | 1031 hPa | - | - | - | - |
| 1787981455 | 28.89° C | 45% | 1031.3 hPa | - | - | - | - |
| 1787980853 | 28.33° C | 46% | 1031.4 hPa | - | - | - | - |
| 1787980250 | 28.33° C | 46% | 1031.6 hPa | - | - | - | - |
| 1787979648 | 28.89° C | 47% | 1031.9 hPa | - | - | - | - |
| 1787979046 | 28.89° C | 47% | 1032.1 hPa | - | - | - | - |
| 1787978438 | 28.33° C | 46% | 1032.2 hPa | - | - | - | - |
| 1787977836 | 28.33° C | 47% | 1032.4 hPa | - | - | - | - |
| 1787977233 | 28.33° C | 48% | 1032.7 hPa | - | - | - | - |
| 1787976631 | 27.78° C | 48% | 1032.8 hPa | - | - | - | - |
| 1787976028 | 27.22° C | 47% | 1032.9 hPa | - | - | - | - |
| 1787975426 | 27.22° C | 46% | 1033 hPa | - | - | - | - |
| 1787974823 | 27.22° C | 47% | 1033.1 hPa | - | - | - | - |
* Rain since midnight (hover to see other rain measurements)
** Current wind speed in m/s (hover to see current wind gust speed)